Preview of NWS' New Version of Forecast
This preview is not operational and should not be used for support decisions.

Regional Weather Roundup (RWR)

Issued by National Weather Service (NWS)

                            
000
ASUS46 KPQR 200010
RWROR 

OREGON REGIONAL WEATHER ROUNDUP
NATIONAL WEATHER SERVICE PORTLAND OR
500 PM PDT FRI APR 19 2019

NOTE: "FAIR" INDICATES FEW OR NO CLOUDS BELOW 12,000 FEET WITH
NO SIGNIFICANT WEATHER AND/OR OBSTRUCTIONS TO VISIBILITY.

ORZ001>013-200100-
NORTHWEST OREGON

  
CITY           SKY/WX    TMP DP  RH WIND       PRES   REMARKS
ASTORIA        CLOUDY    55  50  83 NW5       29.98F                  
6HR MIN TEMP:  53; 6HR MAX TEMP:  56; 6HR PCP: TRACE;                

TILLAMOOK      CLOUDY    54  52  94 W5        29.99S                  
NEWPORT        DRIZZLE   52  52 100 N5        30.01S                  
PORTLAND       LGT RAIN  56  52  86 NW10      29.95F FOG              
6HR MIN TEMP:  56; 6HR MAX TEMP:  62; 6HR PCP:  0.08;                

VANCOUVER WA   LGT RAIN  56  53  90 NW10      29.95S                  
6HR MIN TEMP:  55; 6HR MAX TEMP:  60; 6HR PCP:  0.09;                

SCAPPOOSE      LGT RAIN  58  53  84 NW7       29.95F                  
6HR MIN TEMP:  58; 6HR MAX TEMP:  63; 6HR PCP:  0.31;                

HILLSBORO      LGT RAIN  55  53  93 NW7       29.95F FOG              
6HR MIN TEMP:  55; 6HR MAX TEMP:  59; 6HR PCP:  0.17;                

AURORA         CLOUDY    56  54  93 NW7       29.96S FOG              
6HR MIN TEMP:  56; 6HR MAX TEMP:  65; 6HR PCP:  0.04;                

MCMINNVILLE    RAIN      56  53  90 N8        29.95S FOG              
6HR MIN TEMP:  56; 6HR MAX TEMP:  62; 6HR PCP:  0.07;                

SALEM          RAIN      55  54  96 N10       29.94S FOG              
6HR MIN TEMP:  55; 6HR MAX TEMP:  63; 6HR PCP:  0.09;                

CORVALLIS      LGT RAIN  57  53  86 NW10      29.95S                  
EUGENE         CLOUDY    63  54  72 N14       29.93S                  
6HR MIN TEMP:  62; 6HR MAX TEMP:  71;                                

$$

ORZ021-028-200100-
SOUTHWEST OREGON

  
CITY           SKY/WX    TMP DP  RH WIND       PRES   REMARKS
NORTH BEND     CLOUDY    54  52  93 N10       30.01F                  
6HR MIN TEMP:  54; 6HR MAX TEMP:  59; 6HR PCP: TRACE;                

BROOKINGS      CLOUDY    54  51  90 NW8       29.98F                  
ROSEBURG       PTSUNNY   65  52  62 NW9G17    29.92R                  
6HR MIN TEMP:  64; 6HR MAX TEMP:  76;                                

SEXTON SUMMIT  MOSUNNY   58  50  75 CALM      29.92F                  
6HR MIN TEMP:  57; 6HR MAX TEMP:  70;                                

GRANTS PASS    PTSUNNY   77  50  38 N13G18    29.84R                  
MEDFORD        PTSUNNY   80  49  33 NW14      29.78F                  
6HR MIN TEMP:  67; 6HR MAX TEMP:  81;                                

$$

ORZ014>016-041-200100-
COLUMBIA GORGE

  
CITY           SKY/WX    TMP DP  RH WIND       PRES   REMARKS
TROUTDALE      LGT RAIN  57  53  86 NW3       29.94S                  
6HR MIN TEMP:  57; 6HR MAX TEMP:  66; 6HR PCP:  0.02;                

HOOD RIVER     CLOUDY    63  46  55 MISG      29.88F                  
THE DALLES     CLOUDY    66  47  50 W20G31    29.83R                  
6HR MIN TEMP:  66; 6HR MAX TEMP:  75;                                

$$

ORZ029>031-041-044-049-050-061>064-502-503-505>511-200100-
EASTERN OREGON

  
CITY           SKY/WX    TMP DP  RH WIND       PRES   REMARKS
MADRAS         PTSUNNY   68  50  52 NW15G22   29.83S                  
REDMOND        PTSUNNY   72  47  40 NW12      29.80F                  
6HR MIN TEMP:  69; 6HR MAX TEMP:  79; 6HR PCP: TRACE;                

BEND           PTSUNNY   72  46  40 N16       29.80F                  
PRINEVILLE     PTSUNNY   66  52  59 N8        29.82S                  
KLAMATH FALLS  PTSUNNY   71  38  29 W7        29.86F                  
6HR MIN TEMP:  66; 6HR MAX TEMP:  74;                                

LAKEVIEW       MOSUNNY   70  36  28 SW18      29.90F                  
HERMISTON      CLOUDY    75  50  41 NE14      29.75S                  
6HR MIN TEMP:  75; 6HR MAX TEMP:  82;                                

PENDLETON      CLOUDY    70  51  51 N8        29.78F                  
6HR MIN TEMP:  70; 6HR MAX TEMP:  77; 6HR PCP: TRACE;                

JOHN DAY       MOSUNNY   69  47  46 W13       29.79S                  
MEACHAM        LGT RAIN  59  47  64 VRB3      29.87S                  
6HR MIN TEMP:  59; 6HR MAX TEMP:  70; 6HR PCP: TRACE;                

LA GRANDE      RAIN      61  54  77 NW7       29.82R                  
6HR MIN TEMP:  61; 6HR MAX TEMP:  76; 6HR PCP:  0.01;                

BAKER CITY     PTSUNNY   69  51  52 VRB5      29.78F                  
6HR MIN TEMP:  69; 6HR MAX TEMP:  78;                                

BURNS          PTSUNNY   75  37  25 SW14      29.82F                  
6HR MIN TEMP:  65; 6HR MAX TEMP:  79;                                

ROME             N/A     80  32  17 S16G26    29.82F                  
6HR MIN TEMP:  73; 6HR MAX TEMP:  82;                                

ONTARIO        MOSUNNY   82  48  30 VRB3      29.76F                  
6HR MIN TEMP:  67; 6HR MAX TEMP:  82;                                

$$